Weather History for Rensselaer, IN

Change the Weather History Date:

Monday, May 27, 2013

  Actual Average (KVPZ) Record (KVPZ)
Temperature  
Mean Temperature 62 °F 63 °F  
Max Temperature 68 °F 74 °F 97 °F (2012)
Min Temperature 55 °F 52 °F 42 °F (2008)
Degree Days  
Heating Degree Days 4 4  
Month to date heating degree days 204  
Since 1 July heating degree days 6263  
Cooling Degree Days 0 2  
Month to date cooling degree days 32  
Year to date cooling degree days 37  
Growing Degree Days 12 (Base 50)    
Moisture  
Dew Point 58 °F    
Average Humidity 94    
Maximum Humidity 100    
Minimum Humidity 83    
Precipitation  
Precipitation 1.61 in 0.10 in 0.50 in (2013)
Month to date precipitation 3.39  
Year to date precipitation 12.57  
Sea Level Pressure  
Sea Level Pressure 29.99 in    
Wind  
Wind Speed 10 mph (ESE)    
Max Wind Speed 18 mph    
Max Gust Speed 23 mph    
Visibility 7 miles    
Events Rain , Thunderstorm    
T = Trace of Precipitation, MM = Missing Value Source: NWS Daily Summary

Daily Weather History Graph

Daily Weather History Graph

Search for Another Location

Airport:

Trip Planner

Search our weather history database for the weather conditions in past years. The results will help you decide how hot, cold, wet, or windy it might be!

Date:

Astronomy

May. 27, 2013 Rise Set
Actual Time 5:21 AM CDT 8:10 PM CDT
Civil Twilight 4:49 AM CDT 8:43 PM CDT
Nautical Twilight 4:08 AM CDT 9:24 PM CDT
Astronomical Twilight 3:21 AM CDT 10:11 PM CDT
Moon 10:49 PM CDT (5/27) 7:58 AM CDT (5/27)
Length of Visible Light 15h 54m
Length of Day
14h 49m
Waning Gibbous, 91% of the Moon is Illuminated
May 27
Waning Gibbous
May 31
Last Quarter
Jun 8
New
Jun 16
First Quarter
Jun 23
Full

Hourly Weather History & Observations

Time (CDT) Temp. Dew Point Humidity Pressure Visibility Wind Dir Wind Speed Gust Speed Precip Events Conditions
12:15 AM 55.4 °F 53.6 °F 94% 30.14 in 7.0 mi ESE 9.2 mph - 0.02 in Rain Rain
12:35 AM 55.4 °F 53.6 °F 94% 30.14 in 7.0 mi ESE 6.9 mph - 0.05 in Rain Rain
12:55 AM 55.4 °F 53.6 °F 94% 30.14 in 5.0 mi SE 8.1 mph - 0.12 in Rain , Thunderstorm Rain
1:15 AM 55.4 °F 53.6 °F 94% 30.14 in 5.0 mi SE 11.5 mph - 0.07 in Rain , Thunderstorm Heavy Thunderstorms and Rain
1:35 AM 55.4 °F 53.6 °F 94% 30.13 in 5.0 mi SE 11.5 mph - 0.14 in Rain , Thunderstorm Rain
1:55 AM 55.4 °F 53.6 °F 94% 30.13 in 4.0 mi SE 12.7 mph - 0.24 in Rain , Thunderstorm Rain
2:15 AM 55.4 °F 55.4 °F 100% 30.12 in 4.0 mi SE 11.5 mph - 0.09 in Rain , Thunderstorm Rain
2:35 AM 55.4 °F 55.4 °F 100% 30.12 in 3.0 mi SE 13.8 mph - 0.20 in Rain , Thunderstorm Thunderstorms and Rain
2:55 AM 55.4 °F 55.4 °F 100% 30.11 in 3.0 mi SE 15.0 mph 19.6 mph 0.30 in Rain Rain
3:15 AM 55.4 °F 55.4 °F 100% 30.10 in 4.0 mi SE 13.8 mph - 0.05 in Rain Rain
3:35 AM 55.4 °F 55.4 °F 100% 30.09 in 4.0 mi SE 10.4 mph - 0.09 in Rain Light Rain
3:55 AM 55.4 °F 55.4 °F 100% 30.09 in 5.0 mi SE 15.0 mph 19.6 mph 0.11 in Rain Rain
4:15 AM 57.2 °F 55.4 °F 94% 30.09 in 4.0 mi SE 12.7 mph - 0.05 in Rain Light Rain
4:35 AM 57.2 °F 55.4 °F 94% 30.09 in 4.0 mi ESE 12.7 mph 17.3 mph 0.12 in Rain Light Rain
4:55 AM 57.2 °F 55.4 °F 94% 30.08 in 5.0 mi ESE 13.8 mph 19.6 mph 0.14 in Rain Light Rain
5:15 AM 57.2 °F 55.4 °F 94% 30.08 in 5.0 mi ESE 12.7 mph 18.4 mph 0.02 in Rain Light Rain
5:35 AM 57.2 °F 55.4 °F 94% 30.08 in 7.0 mi ESE 12.7 mph 19.6 mph 0.03 in Rain Rain
5:55 AM 57.2 °F 55.4 °F 94% 30.08 in 7.0 mi ESE 11.5 mph - 0.04 in   Drizzle
6:15 AM 57.2 °F 55.4 °F 94% 30.07 in 7.0 mi ESE 16.1 mph - 0.01 in   Drizzle
6:35 AM 57.2 °F 55.4 °F 94% 30.07 in 10.0 mi ESE 10.4 mph - 0.01 in   Overcast
6:55 AM 57.2 °F 55.4 °F 94% 30.07 in 10.0 mi ESE 13.8 mph 20.7 mph 0.01 in   Overcast
7:15 AM 57.2 °F 55.4 °F 94% 30.05 in 7.0 mi ESE 16.1 mph 20.7 mph N/A   Overcast
7:35 AM 57.2 °F 55.4 °F 94% 30.04 in 7.0 mi ESE 17.3 mph - N/A Rain Heavy Rain
7:55 AM 55.4 °F 53.6 °F 94% 30.06 in 7.0 mi ESE 16.1 mph 20.7 mph 0.01 in   Overcast
8:15 AM 55.4 °F 53.6 °F 94% 30.06 in 10.0 mi ESE 12.7 mph - N/A   Overcast
8:35 AM 55.4 °F 53.6 °F 94% 30.06 in 3.0 mi East 12.7 mph 18.4 mph 0.08 in Rain Rain
8:55 AM 55.4 °F 53.6 °F 94% 30.04 in 7.0 mi East 13.8 mph 18.4 mph 0.08 in   Light Drizzle
9:15 AM 55.4 °F 53.6 °F 94% 30.05 in 7.0 mi ESE 15.0 mph 21.9 mph N/A Rain Rain
9:35 AM 55.4 °F 53.6 °F 94% 30.05 in 2.5 mi ESE 10.4 mph - 0.11 in Rain Rain
9:55 AM 55.4 °F 53.6 °F 94% 30.04 in 3.0 mi ESE 16.1 mph 20.7 mph 0.22 in Rain Rain
10:15 AM 55.4 °F 53.6 °F 94% 30.03 in 3.0 mi ESE 12.7 mph 18.4 mph 0.04 in Rain Rain
10:35 AM 57.2 °F 55.4 °F 94% 30.03 in 7.0 mi East 15.0 mph - 0.04 in   Mostly Cloudy
10:55 AM 59.0 °F 55.4 °F 88% 30.01 in 10.0 mi East 12.7 mph 18.4 mph 0.04 in   Mostly Cloudy
11:15 AM 60.8 °F 57.2 °F 88% 30.01 in 10.0 mi East 15.0 mph 18.4 mph N/A   Mostly Cloudy
11:35 AM 60.8 °F 57.2 °F 88% 29.99 in 10.0 mi ESE 13.8 mph 21.9 mph N/A   Mostly Cloudy
11:55 AM 60.8 °F 57.2 °F 88% 29.98 in 10.0 mi East 18.4 mph 23.0 mph N/A   Mostly Cloudy
12:15 PM 60.8 °F 57.2 °F 88% 29.99 in 10.0 mi ESE 12.7 mph - N/A   Overcast
12:35 PM 62.6 °F 59.0 °F 88% 29.96 in 10.0 mi ESE 16.1 mph 21.9 mph N/A   Overcast
12:55 PM 62.6 °F 59.0 °F 88% 29.96 in 10.0 mi ESE 13.8 mph - N/A   Overcast
1:15 PM 62.6 °F 59.0 °F 88% 29.96 in 10.0 mi SE 10.4 mph - N/A   Overcast
1:35 PM 62.6 °F 59.0 °F 88% 29.96 in 10.0 mi ESE 10.4 mph - N/A   Overcast
1:55 PM 62.6 °F 60.8 °F 94% 29.96 in 5.0 mi ESE 9.2 mph - N/A   Light Drizzle
2:15 PM 62.6 °F 60.8 °F 94% 29.96 in 7.0 mi ESE 3.5 mph - N/A Rain Light Rain
2:35 PM 64.4 °F 60.8 °F 88% 29.95 in 10.0 mi ESE 6.9 mph - N/A   Overcast
2:55 PM 64.4 °F 60.8 °F 88% 29.94 in 10.0 mi Calm Calm - N/A   Overcast
3:15 PM 64.4 °F 62.6 °F 94% 29.94 in 10.0 mi ENE 3.5 mph - N/A   Overcast
3:35 PM 66.2 °F 62.6 °F 88% 29.92 in 10.0 mi ENE 8.1 mph - N/A   Overcast
3:55 PM 66.2 °F 62.6 °F 88% 29.92 in 10.0 mi NE 4.6 mph - N/A   Overcast
4:15 PM 68.0 °F 62.6 °F 83% 29.91 in 10.0 mi NE 5.8 mph - N/A   Mostly Cloudy
4:35 PM 66.2 °F 62.6 °F 88% 29.90 in 10.0 mi NE 10.4 mph - N/A   Scattered Clouds
4:55 PM 66.2 °F 62.6 °F 88% 29.90 in 10.0 mi NE 9.2 mph - N/A Thunderstorm Scattered Clouds
5:15 PM 66.2 °F 62.6 °F 88% 29.89 in 10.0 mi ENE 10.4 mph - N/A   Scattered Clouds
5:35 PM 64.4 °F 62.6 °F 94% 29.89 in 10.0 mi NE 8.1 mph - N/A   Mostly Cloudy
5:55 PM 64.4 °F 62.6 °F 94% 29.88 in 10.0 mi NE 9.2 mph - N/A Thunderstorm Overcast
6:15 PM 64.4 °F 62.6 °F 94% 29.88 in 10.0 mi ENE 5.8 mph - N/A Rain , Thunderstorm Thunderstorms and Rain
6:35 PM 64.4 °F 62.6 °F 94% 29.87 in 1.8 mi NE 5.8 mph - 0.14 in Rain , Thunderstorm Rain
6:55 PM 64.4 °F 62.6 °F 94% 29.86 in 4.0 mi ENE 9.2 mph - 0.18 in Rain Light Rain
7:15 PM 64.4 °F 62.6 °F 94% 29.89 in 2.0 mi Calm Calm - 0.06 in Rain Rain
7:35 PM 64.4 °F 62.6 °F 94% 29.90 in 3.0 mi West 5.8 mph - 0.10 in Rain Rain
7:55 PM 62.6 °F 62.6 °F 100% 29.87 in 4.0 mi Calm Calm - 0.11 in   Mostly Cloudy
8:15 PM 62.6 °F 62.6 °F 100% 29.88 in 3.0 mi Calm Calm - N/A   Scattered Clouds
8:35 PM 62.6 °F 62.6 °F 100% 29.87 in 4.0 mi Calm Calm - N/A   Scattered Clouds
8:55 PM 62.6 °F 62.6 °F 100% 29.87 in 10.0 mi Calm Calm - N/A   Clear
9:15 PM 62.6 °F 62.6 °F 100% 29.88 in 7.0 mi Calm Calm - N/A   Clear
9:35 PM 62.6 °F 62.6 °F 100% 29.88 in 7.0 mi Calm Calm - N/A   Mostly Cloudy
9:55 PM 60.8 °F 60.8 °F 100% 29.89 in 2.5 mi Calm Calm - N/A   Overcast
10:15 PM 60.8 °F 60.8 °F 100% 29.90 in 4.0 mi Calm Calm - N/A   Overcast
10:35 PM 62.6 °F 60.8 °F 94% 29.90 in 7.0 mi Calm Calm - N/A   Overcast
10:55 PM 62.6 °F 62.6 °F 100% 29.91 in 10.0 mi SSE 5.8 mph - N/A   Overcast
11:15 PM 62.6 °F 62.6 °F 100% 29.90 in 10.0 mi SSE 4.6 mph - N/A   Overcast
11:35 PM 62.6 °F 62.6 °F 100% 29.91 in 10.0 mi SSE 5.8 mph - N/A   Mostly Cloudy
11:55 PM 62.6 °F 62.6 °F 100% 29.91 in 7.0 mi South 9.2 mph - 0.01 in Rain , Thunderstorm Rain